New River MCAS, NC

5:23 AM EDT on June 29, 2017 (GMT -0400)
New River Marine Corps Air Station

Weather History for KNCA - May, 2015

Change the Weather History Date:

Wednesday, May 20, 2015

  Actual Average Record
Temperature  
Mean Temperature 79 °F -  
Max Temperature 89 °F 79 °F 93 °F (2000)
Min Temperature 69 °F 58 °F 48 °F (2014)
Cooling Degree Days 14    
Growing Degree Days 29 (Base 50)    
Moisture  
Dew Point 65 °F    
Average Humidity 71    
Maximum Humidity 93    
Minimum Humidity 38    
Precipitation  
Precipitation 0.00 in - - ()
Sea Level Pressure  
Sea Level Pressure 29.92 in    
Wind  
Wind Speed 5 mph (NNW)    
Max Wind Speed 16 mph    
Max Gust Speed -    
Visibility 9 miles    
Events      
Averages and records for this station are not official NWS values.
T = Trace of Precipitation, MM = Missing Value Source: NWS Daily Summary

Daily Weather History Graph

Daily Weather History Graph

Search for Another Location

Airport or City:

Trip Planner

Search our weather history database for the weather conditions in past years. The results will help you decide how hot, cold, wet, or windy it might be!

Date:

Astronomy

May. 20, 2015 Rise Set
Actual Time 6:03 AM EDT 8:09 PM EDT
Civil Twilight 5:35 AM EDT 8:37 PM EDT
Nautical Twilight 5:00 AM EDT 9:12 PM EDT
Astronomical Twilight 4:23 AM EDT 9:49 PM EDT
Moon 8:22 AM EDT (5/20) 10:37 PM EDT (5/20)
Length of Visible Light 15h 02m
Length of Day
14h 05m
Waxing Crescent, 8% of the Moon is Illuminated
May 20
Waxing Crescent
May 25
First Quarter
Jun 2
Full
Jun 9
Last Quarter
Jun 16
New

Hourly Weather History & Observations

Time (EDT) Temp. Heat Index Dew Point Humidity Pressure Visibility Wind Dir Wind Speed Gust Speed Precip Events Conditions
12:56 AM 71.1 °F - 68.0 °F 90% 29.94 in 10.0 mi Calm Calm - N/A   Partly Cloudy
1:56 AM 70.0 °F - 68.0 °F 93% 29.93 in 8.0 mi West 3.5 mph - N/A   Mostly Cloudy
2:56 AM 69.1 °F - 66.9 °F 93% 29.91 in 7.0 mi Calm Calm - N/A   Clear
3:19 AM 70.0 °F - 68.0 °F 93% 29.90 in 6.0 mi Calm Calm - N/A   Partly Cloudy
3:56 AM 69.1 °F - 66.9 °F 93% 29.90 in 5.0 mi West 3.5 mph - N/A   Partly Cloudy
4:56 AM 69.1 °F - 66.9 °F 93% 29.91 in 7.0 mi WNW 4.6 mph - N/A   Clear
5:56 AM 69.1 °F - 66.9 °F 93% 29.89 in 7.0 mi WNW 4.6 mph - N/A   Clear
6:56 AM 70.0 °F - 68.0 °F 93% 29.92 in 5.0 mi WSW 3.5 mph - N/A   Clear
7:56 AM 75.0 °F - 66.9 °F 76% 29.92 in 10.0 mi NNW 5.8 mph - N/A   Clear
8:56 AM 79.0 °F - 63.0 °F 58% 29.94 in 10.0 mi NNW 6.9 mph - N/A   Clear
9:56 AM 82.0 °F 83.0 °F 62.1 °F 51% 29.93 in 10.0 mi NW 10.4 mph - N/A   Clear
10:56 AM 84.0 °F 84.4 °F 61.0 °F 46% 29.94 in 10.0 mi North 8.1 mph - N/A   Clear
11:56 AM 86.0 °F 86.8 °F 63.0 °F 46% 29.94 in 10.0 mi WNW 6.9 mph - N/A   Clear
12:56 PM 87.1 °F 87.0 °F 61.0 °F 41% 29.92 in 10.0 mi NW 6.9 mph - N/A   Clear
1:56 PM 88.0 °F 88.4 °F 62.1 °F 42% 29.91 in 10.0 mi NW 10.4 mph - N/A   Clear
2:56 PM 89.1 °F 89.3 °F 62.1 °F 40% 29.90 in 10.0 mi NNW 8.1 mph - N/A   Partly Cloudy
3:56 PM 89.1 °F 88.8 °F 60.1 °F 38% 29.88 in 10.0 mi WNW 4.6 mph - N/A   Clear
4:56 PM 84.0 °F 87.0 °F 68.0 °F 58% 29.89 in 10.0 mi North - - N/A   Mostly Cloudy
5:56 PM 78.1 °F - 69.1 °F 74% 29.91 in 10.0 mi SE 16.1 mph - N/A   Scattered Clouds
6:56 PM 75.9 °F - 66.9 °F 74% 29.92 in 10.0 mi SE 13.8 mph - N/A   Scattered Clouds
7:56 PM 73.9 °F - 64.9 °F 73% 29.91 in 10.0 mi ESE 11.5 mph - N/A   Clear
8:56 PM 72.0 °F - 64.9 °F 78% 29.92 in 10.0 mi ESE 11.5 mph - N/A   Clear
9:56 PM 72.0 °F - 64.9 °F 78% 29.95 in 10.0 mi ESE 10.4 mph - N/A   Clear
10:45 PM 72.0 °F - 64.9 °F 78% 29.94 in 10.0 mi East 11.5 mph - N/A   Mostly Cloudy
10:53 PM 71.6 °F - 64.4 °F 78% 29.94 in 10.0 mi East 11.5 mph - N/A   Scattered Clouds
10:56 PM 72.0 °F - 64.9 °F 78% 29.95 in 10.0 mi ESE 11.5 mph - N/A   Scattered Clouds
11:56 PM 71.1 °F - 64.0 °F 78% 29.96 in 10.0 mi East 9.2 mph - N/A   Scattered Clouds